Flag for U.S.A. Weather past 2 weeks in Terre Haute, Indiana, U.S.A.

Now
67 °F

Fog.


Feels Like: 67 °F
Forecast: 61 / 77 °F
Wind: No wind

Location: Terre Haute International Airport - Hulman Field

Current Time: Jul 1, 2015 at 1:48:36 AM

Latest Report: Jun 30, 2015 at 11:53 PM


Visibility: 5 mi

Pressure: 29.87 "Hg

Humidity: 97%

Dew point: 66 °F

Location of Terre HauteLocation

Historic Weather in Terre Haute — Graph

°F

Terre Haute temperature yesterday

Maximum temperature yesterday: 83 °F (at 3:53 PM)
Minimum temperature yesterday: 64 °F (at 3:53 AM)
Average temperature yesterday: 72 °F

Past Weeks' High & Low Weather Summary

 TemperatureHumidityPressure
High86 °F (Jun 22, 2:53 PM)97% (Jun 16, 2:53 AM)30.18 "Hg (Jun 16, 2:53 AM)
Low54 °F (Jun 28, 6:53 AM)45% (Jun 28, 1:53 PM)29.75 "Hg (Jun 29, 6:53 AM)
Average73 °F82%29.95 "Hg
* Reported Jun 15 11:53 PM — Jun 30 11:53 PM, Terre Haute, Weather by CustomWeather, © 2015

Note: Actual official high and low records may vary slightly from our data, if they occured in-between our weather recording intervals... More about our weather records

Advertising

Terre Haute weather history for previous 24 hours

 ConditionsComfort  
Time TempWeatherWind HumidityBarometerVisibility
11:53 PM
Tue, Jun 30
67 °FFog.No wind97%29.87 "Hg5 mi
10:53 PM68 °FClear.No wind90%29.86 "Hg9 mi
9:53 PM71 °FSunny.3 mph84%29.84 "Hg9 mi
8:53 PM73 °FPassing clouds.5 mph76%29.83 "Hg9 mi
7:53 PM75 °FPassing clouds.6 mph69%29.80 "Hg10 mi
6:53 PM74 °FThundershowers. Cloudy.9 mph79%29.79 "Hg9 mi
5:53 PM80 °FThundershowers. Partly sunny.9 mph64%29.78 "Hg10 mi
4:53 PM83 °FSunny.14 mph57%29.79 "Hg10 mi
3:53 PM83 °FSunny.13 mph55%29.81 "Hg10 mi
2:53 PM82 °FPassing clouds.12 mph60%29.81 "Hg10 mi
1:53 PM81 °FScattered clouds.12 mph62%29.83 "Hg10 mi
12:53 PM79 °FPassing clouds.9 mph67%29.84 "Hg10 mi
11:53 AM78 °FSunny.5 mph69%29.84 "Hg10 mi
10:53 AM74 °FPassing clouds.6 mph79%29.85 "Hg10 mi
9:53 AM73 °FScattered clouds.7 mph81%29.85 "Hg10 mi
8:53 AM70 °FScattered clouds.8 mph87%29.85 "Hg10 mi
7:53 AM67 °FSunny.6 mph93%29.84 "Hg10 mi
6:53 AM65 °FPassing clouds.No wind94%29.83 "Hg10 mi
5:53 AM65 °FPassing clouds.5 mph91%29.82 "Hg10 mi
4:53 AM66 °FThunderstorms. Passing clouds.No wind87%29.83 "Hg10 mi
3:53 AM64 °FClear.3 mph97%29.82 "Hg10 mi
2:53 AM66 °FClear.3 mph93%29.83 "Hg10 mi
1:53 AM67 °FClear.3 mph90%29.83 "Hg10 mi
Weather by CustomWeather, © 2015

See weather overviewHow to use our weather pages